Wahpeton, MN

10:42 AM CST on November 21, 2019 (GMT -0600)
Stern

Weather History for KBWP - September, 2019

Change the Weather History Date:

Tuesday, September 17, 2019

  Actual Average (KFFM) Record (KFFM)
Temperature  
Mean Temperature 78 °F -  
Max Temperature 87 °F 66 °F 91 °F (1955)
Min Temperature 68 °F 47 °F 32 °F (1959)
Cooling Degree Days 12    
Growing Degree Days 28 (Base 50)    
Moisture  
Dew Point 66 °F    
Average Humidity 70    
Maximum Humidity 88    
Minimum Humidity 46    
Precipitation  
Precipitation 0.00 in - - ()
Sea Level Pressure  
Sea Level Pressure 29.74 in    
Wind  
Wind Speed 15 mph ()    
Max Wind Speed 30 mph    
Max Gust Speed 33 mph    
Visibility 10.0 miles    
Events      
Averages and records for this station are not official NWS values.
T = Trace of Precipitation, MM = Missing Value Source: Averaged Metar Reports

Daily Weather History Graph

Daily Weather History Graph

Search for Another Location

Airport or City:

Astronomy

Sep. 17, 2019 Rise Set
Actual Time 7:06 AM CDT 7:34 PM CDT
Civil Twilight 6:36 AM CDT 8:04 PM CDT
Nautical Twilight 6:01 AM CDT 8:39 PM CDT
Astronomical Twilight 5:24 AM CDT 9:16 PM CDT
Moon 9:27 PM CDT (9/17) 10:21 AM CDT (9/17)
Length of Visible Light 13h 27m
Length of Day
12h 27m
Waning Gibbous, 89% of the Moon is Illuminated
Sep 17
Waning Gibbous
Sep 21
Last Quarter
Sep 28
New
Oct 5
First Quarter
Oct 13
Full

Hourly Weather History & Observations

Time (CDT) Temp. Heat Index Dew Point Humidity Pressure Visibility Wind Dir Wind Speed Gust Speed Precip Events Conditions
12:15 AM 71.6 °F - 68.0 °F 88% 29.82 in 10.0 mi SE 11.5 mph - N/A   Clear
12:35 AM 71.6 °F - 68.0 °F 88% 29.81 in 10.0 mi SSE 10.4 mph - N/A   Clear
12:55 AM 71.6 °F - 68.0 °F 88% 29.81 in 10.0 mi SSE 11.5 mph - N/A   Clear
1:15 AM 71.6 °F - 68.0 °F 88% 29.81 in 10.0 mi SSE 13.8 mph - N/A   Clear
1:35 AM 71.6 °F - 68.0 °F 88% 29.82 in 10.0 mi SSE 10.4 mph - N/A   Clear
1:55 AM 71.6 °F - 68.0 °F 88% 29.83 in 10.0 mi SSE 12.7 mph 17.3 mph N/A   Clear
2:15 AM 71.6 °F - 68.0 °F 88% 29.82 in 10.0 mi SSE 12.7 mph - N/A   Clear
2:35 AM 71.6 °F - 68.0 °F 88% 29.82 in 10.0 mi SSE 10.4 mph - N/A   Clear
2:55 AM 71.6 °F - 66.2 °F 83% 29.82 in 10.0 mi South 16.1 mph 20.7 mph N/A   Clear
3:15 AM 73.4 °F - 64.4 °F 73% 29.82 in 10.0 mi South 19.6 mph - N/A   Scattered Clouds
3:35 AM 71.6 °F - 62.6 °F 73% 29.82 in 10.0 mi South 24.2 mph 29.9 mph N/A   Scattered Clouds
3:55 AM 69.8 °F - 62.6 °F 78% 29.83 in 10.0 mi South 15.0 mph 24.2 mph N/A   Scattered Clouds
4:15 AM 69.8 °F - 64.4 °F 83% 29.82 in 10.0 mi South 19.6 mph 27.6 mph N/A   Scattered Clouds
4:35 AM 69.8 °F - 64.4 °F 83% 29.81 in 10.0 mi South 19.6 mph 29.9 mph N/A   Overcast
4:55 AM 68.0 °F - 62.6 °F 83% 29.80 in 10.0 mi SSE 17.3 mph 31.1 mph N/A   Mostly Cloudy
5:15 AM 68.0 °F - 64.4 °F 88% 29.80 in 10.0 mi SE 18.4 mph 23.0 mph N/A   Mostly Cloudy
5:35 AM 68.0 °F - 64.4 °F 88% 29.79 in 10.0 mi SE 18.4 mph 26.5 mph N/A   Overcast
5:55 AM 68.0 °F - 62.6 °F 83% 29.79 in 10.0 mi SE 13.8 mph 19.6 mph N/A   Mostly Cloudy
6:15 AM 68.0 °F - 62.6 °F 83% 29.79 in 10.0 mi SE 11.5 mph 17.3 mph N/A   Scattered Clouds
6:35 AM 69.8 °F - 64.4 °F 83% 29.78 in 10.0 mi SE 17.3 mph 25.3 mph N/A   Clear
6:55 AM 69.8 °F - 64.4 °F 83% 29.78 in 10.0 mi SE 17.3 mph 26.5 mph N/A   Clear
7:15 AM 69.8 °F - 64.4 °F 83% 29.78 in 10.0 mi SE 16.1 mph 21.9 mph N/A   Clear
7:35 AM 69.8 °F - 62.6 °F 78% 29.78 in 10.0 mi ESE 15.0 mph 23.0 mph N/A   Clear
7:55 AM 69.8 °F - 64.4 °F 83% 29.77 in 10.0 mi SE 11.5 mph 17.3 mph N/A   Clear
8:15 AM 69.8 °F - 64.4 °F 83% 29.77 in 10.0 mi SE 13.8 mph 19.6 mph N/A   Clear
8:35 AM 71.6 °F - 64.4 °F 78% 29.77 in 10.0 mi SE 13.8 mph 21.9 mph N/A   Clear
8:55 AM 71.6 °F - 64.4 °F 78% 29.76 in 10.0 mi SE 15.0 mph 25.3 mph N/A   Clear
9:15 AM 71.6 °F - 64.4 °F 78% 29.75 in 10.0 mi SE 16.1 mph - N/A   Clear
9:35 AM 73.4 °F - 66.2 °F 78% 29.75 in 10.0 mi SSE 17.3 mph 21.9 mph N/A   Clear
9:55 AM 75.2 °F - 68.0 °F 78% 29.75 in 10.0 mi SSE 21.9 mph 28.8 mph N/A   Clear
10:15 AM 77.0 °F - 68.0 °F 74% 29.74 in 10.0 mi SSE 18.4 mph 29.9 mph N/A   Clear
10:35 AM 77.0 °F - 68.0 °F 74% 29.74 in 10.0 mi SSE 18.4 mph 31.1 mph N/A   Clear
10:55 AM 78.8 °F - 68.0 °F 69% 29.74 in 10.0 mi SSE 19.6 mph 27.6 mph N/A   Clear
11:15 AM 78.8 °F - 68.0 °F 69% 29.74 in 10.0 mi South 17.3 mph - N/A   Clear
11:35 AM 80.6 °F 83.2 °F 68.0 °F 65% 29.74 in 10.0 mi SSE 17.3 mph 25.3 mph N/A   Clear
11:55 AM 80.6 °F 83.2 °F 68.0 °F 65% 29.73 in 10.0 mi South 18.4 mph 26.5 mph N/A   Clear
12:15 PM 80.6 °F 83.2 °F 68.0 °F 65% 29.73 in 10.0 mi SSE 18.4 mph 24.2 mph N/A   Clear
12:35 PM 82.4 °F 85.4 °F 68.0 °F 62% 29.73 in 10.0 mi SSE 16.1 mph 25.3 mph N/A   Clear
12:55 PM 82.4 °F 84.6 °F 66.2 °F 58% 29.72 in 10.0 mi South 18.4 mph 25.3 mph N/A   Clear
1:15 PM 84.2 °F 86.6 °F 66.2 °F 55% 29.71 in 10.0 mi South 24.2 mph 31.1 mph N/A   Clear
1:35 PM 86.0 °F 88.2 °F 66.2 °F 51% 29.70 in 10.0 mi South 21.9 mph 31.1 mph N/A   Clear
1:55 PM 86.0 °F 87.3 °F 64.4 °F 48% 29.69 in 10.0 mi South 25.3 mph 32.2 mph N/A   Clear
2:15 PM 86.0 °F 88.2 °F 66.2 °F 51% 29.69 in 10.0 mi South 21.9 mph 32.2 mph N/A   Unknown
2:35 PM 86.0 °F 88.2 °F 66.2 °F 51% 29.69 in 10.0 mi South 20.7 mph 31.1 mph N/A   Unknown
2:55 PM 86.0 °F 87.3 °F 64.4 °F 48% 29.68 in 10.0 mi South 25.3 mph 31.1 mph N/A   Unknown
3:15 PM 87.8 °F 89.4 °F 64.4 °F 46% 29.68 in 10.0 mi South 29.9 mph 33.4 mph N/A   Unknown
3:35 PM 87.8 °F 89.4 °F 64.4 °F 46% 29.68 in 10.0 mi South 21.9 mph 33.4 mph N/A   Unknown
3:55 PM 87.8 °F 89.4 °F 64.4 °F 46% 29.68 in 10.0 mi South 23.0 mph 31.1 mph N/A   Unknown
4:15 PM 87.8 °F 89.4 °F 64.4 °F 46% 29.68 in 10.0 mi South 19.6 mph 32.2 mph N/A   Unknown
4:35 PM 87.8 °F 89.4 °F 64.4 °F 46% 29.67 in 10.0 mi South 20.7 mph 32.2 mph N/A   Unknown
4:55 PM 87.8 °F 89.4 °F 64.4 °F 46% 29.67 in 10.0 mi South 21.9 mph 29.9 mph N/A   Unknown
5:15 PM 87.8 °F 89.4 °F 64.4 °F 46% 29.67 in 10.0 mi South 21.9 mph 28.8 mph N/A   Unknown
5:35 PM 86.0 °F 87.3 °F 64.4 °F 48% 29.67 in 10.0 mi South 20.7 mph 26.5 mph N/A   Unknown
5:55 PM 86.0 °F 88.2 °F 66.2 °F 51% 29.67 in 10.0 mi South 19.6 mph 25.3 mph N/A   Unknown
6:15 PM 84.2 °F 86.6 °F 66.2 °F 55% 29.68 in 10.0 mi South 15.0 mph 24.2 mph N/A   Unknown
6:35 PM 82.4 °F 85.4 °F 68.0 °F 62% 29.68 in 10.0 mi South 11.5 mph 18.4 mph N/A   Unknown
6:55 PM 82.4 °F 85.4 °F 68.0 °F 62% 29.69 in 10.0 mi South 10.4 mph - N/A   Unknown
7:15 PM 80.6 °F 83.2 °F 68.0 °F 65% 29.69 in 10.0 mi South 10.4 mph - N/A   Unknown
7:35 PM 80.6 °F 82.7 °F 66.2 °F 61% 29.69 in 10.0 mi SSE 12.7 mph - N/A   Unknown
7:55 PM 80.6 °F 82.7 °F 66.2 °F 61% 29.70 in 10.0 mi SSE 9.2 mph 17.3 mph N/A   Unknown
8:15 PM 78.8 °F - 68.0 °F 69% 29.70 in 10.0 mi SSE 11.5 mph - N/A   Unknown
8:35 PM 77.0 °F - 68.0 °F 74% 29.70 in 10.0 mi SSE 12.7 mph - N/A   Unknown
8:55 PM 77.0 °F - 68.0 °F 74% 29.70 in 10.0 mi SSE 12.7 mph - N/A   Unknown
9:15 PM 77.0 °F - 68.0 °F 74% 29.70 in 10.0 mi SSE 13.8 mph - N/A   Unknown
9:35 PM 77.0 °F - 68.0 °F 74% 29.70 in 10.0 mi SSE 12.7 mph 18.4 mph N/A   Unknown
9:55 PM 77.0 °F - 68.0 °F 74% 29.70 in 10.0 mi SSE 13.8 mph - N/A   Unknown
10:15 PM 77.0 °F - 66.2 °F 69% 29.70 in 10.0 mi SSE 16.1 mph 19.6 mph N/A   Unknown
10:35 PM 77.0 °F - 66.2 °F 69% 29.70 in 10.0 mi SSE 16.1 mph - N/A   Unknown
10:55 PM 77.0 °F - 64.4 °F 65% 29.69 in 10.0 mi SSE 15.0 mph 25.3 mph N/A   Unknown
11:15 PM 77.0 °F - 64.4 °F 65% 29.69 in 10.0 mi SSE 17.3 mph 20.7 mph N/A   Unknown
11:35 PM 77.0 °F - 64.4 °F 65% 29.67 in 10.0 mi SSE 17.3 mph - N/A   Unknown
11:55 PM 75.2 °F - 64.4 °F 69% 29.67 in 10.0 mi SSE 19.6 mph 24.2 mph N/A   Unknown